Location: Amherst
(42.5000°N, 72.5000°W)
Time: 05:52:34
(UTC-04:00)

ISS - Pass Details

Date: 15 July 2018
Orbit: 402 x 408 km, 51.6° (Epoch: 21 July)

Event Time Altitude Azimuth Distance (km) Brightness Sun altitude
Rises 03:34:02 0° 301° (WNW) 2,331 0.0 -16.3°
Reaches altitude 10° 03:36:38 10° 322° (NW) 1,471 -0.8 -16.1°
Maximum altitude 03:38:54 17° 6° (N) 1,117 -0.8 -15.8°
Drops below altitude 10° 03:41:10 10° 49° (NE) 1,472 0.3 -15.5°
Sets 03:43:47 0° 71° (ENE) 2,333 1.1 -15.2°
